When you browse on this site, cookies collect data to enhance your experience and personalize the content and advertising you see.
Visit our Privacy Policy to learn more. By continuing to use the site, you agree to this use of cookies and data.
  • In Germany
  • List of Countries
  • For 7 days
  • Water Temperature
  • Weather Map
  • Weather Widgets
  • user-avatar
    Login

    Hourly Weather Tibissa

    Today, 16 September, Monday

    Time Temperature Precipitation Wind Pressure Humidity
    00:00 +25°C° 0 mm 2 mps 690 mmHg 57%
    01:00 +25°C° 0 mm 2 mps 690 mmHg 58%
    02:00 +25°C° 0 mm 2 mps 689 mmHg 58%
    03:00 +25°C° 0 mm 2 mps 689 mmHg 58%
    04:00 +24°C° 0 mm 2 mps 688 mmHg 59%
    05:00 +25°C° 0 mm 2 mps 688 mmHg 59%
    06:00 +25°C° 0 mm 2 mps 688 mmHg 59%
    07:00 +25°C° 0 mm 2 mps 688 mmHg 58%
    08:00 +26°C° 0 mm 2 mps 689 mmHg 51%
    09:00 +28°C° 0 mm 2 mps 689 mmHg 45%
    10:00 +30°C° 0 mm 2 mps 690 mmHg 38%
    11:00 +31°C° 0 mm 3 mps 690 mmHg 35%
    12:00 +33°C° 0 mm 3 mps 690 mmHg 32%
    13:00 +34°C° 0 mm 4 mps 690 mmHg 29%
    14:00 +34°C° 0 mm 4 mps 689 mmHg 28%
    15:00 +34°C° 0 mm 4 mps 689 mmHg 27%
    16:00 +34°C° 0 mm 4 mps 689 mmHg 27%
    17:00 +33°C° 0 mm 3 mps 689 mmHg 30%
    18:00 +31°C° 0 mm 2 mps 688 mmHg 34%
    19:00 +31°C° 0 mm 2 mps 688 mmHg 37%
    20:00 +30°C° 0.1 mm 2 mps 688 mmHg 41%
    21:00 +29°C° 0.1 mm 1 mps 689 mmHg 44%
    22:00 +28°C° 0.1 mm 1 mps 689 mmHg 48%
    23:00 +27°C° 0.1 mm 1 mps 688 mmHg 49%

    Tomorrow, 17 September, Tuesday

    Time Temperature Precipitation Wind Pressure Humidity
    00:00 +27°C° 0.1 mm 1 mps 688 mmHg 51%
    01:00 +24°C° 0.1 mm 0 mps 688 mmHg 52%
    02:00 +24°C° 0 mm 0 mps 688 mmHg 54%
    03:00 +24°C° 0 mm 0 mps 688 mmHg 55%
    04:00 +23°C° 0 mm 0 mps 687 mmHg 57%
    05:00 +23°C° 0.1 mm 0 mps 687 mmHg 57%
    06:00 +23°C° 0.1 mm 0 mps 687 mmHg 57%
    07:00 +23°C° 0.1 mm 0 mps 687 mmHg 57%
    08:00 +25°C° 0 mm 0 mps 688 mmHg 51%
    09:00 +26°C° 0 mm 0 mps 688 mmHg 45%
    10:00 +27°C° 0 mm 0 mps 689 mmHg 39%
    11:00 +31°C° 0 mm 1 mps 689 mmHg 36%
    12:00 +32°C° 0 mm 2 mps 688 mmHg 32%
    13:00 +34°C° 0 mm 3 mps 688 mmHg 29%
    14:00 +34°C° 0 mm 3 mps 688 mmHg 29%
    15:00 +34°C° 0 mm 4 mps 687 mmHg 29%
    16:00 +34°C° 0 mm 4 mps 687 mmHg 29%
    17:00 +33°C° 0.1 mm 4 mps 687 mmHg 34%
    18:00 +30°C° 0.1 mm 4 mps 687 mmHg 38%
    19:00 +29°C° 0.1 mm 3 mps 686 mmHg 43%
    20:00 +29°C° 0.1 mm 3 mps 687 mmHg 45%
    21:00 +28°C° 0.1 mm 3 mps 687 mmHg 47%
    22:00 +27°C° 0.1 mm 3 mps 687 mmHg 50%
    23:00 +27°C° 0.2 mm 2 mps 687 mmHg 53%

    Day after tomorrow, 18 September, Wednesday

    Time Temperature Precipitation Wind Pressure Humidity
    00:00 +26°C° 0.2 mm 2 mps 687 mmHg 56%
    01:00 +26°C° 0.2 mm 2 mps 687 mmHg 60%
    02:00 +26°C° 0 mm 2 mps 687 mmHg 61%
    03:00 +25°C° 0 mm 2 mps 686 mmHg 63%
    04:00 +25°C° 0 mm 2 mps 686 mmHg 64%
    05:00 +25°C° 0 mm 1 mps 686 mmHg 63%
    06:00 +25°C° 0 mm 1 mps 686 mmHg 61%
    07:00 +25°C° 0 mm 1 mps 686 mmHg 60%
    08:00 +27°C° 0 mm 2 mps 687 mmHg 51%
    09:00 +29°C° 0 mm 4 mps 687 mmHg 42%
    10:00 +30°C° 0 mm 5 mps 688 mmHg 33%
    11:00 +32°C° 0 mm 5 mps 688 mmHg 31%
    12:00 +33°C° 0 mm 6 mps 688 mmHg 29%
    13:00 +33°C° 0 mm 7 mps 688 mmHg 27%
    14:00 +33°C° 0 mm 6 mps 687 mmHg 27%
    15:00 +33°C° 0 mm 6 mps 687 mmHg 27%
    16:00 +33°C° 0 mm 6 mps 687 mmHg 27%
    17:00 +32°C° 0 mm 4 mps 687 mmHg 31%
    18:00 +30°C° 0 mm 3 mps 687 mmHg 35%
    19:00 +29°C° 0 mm 2 mps 687 mmHg 39%
    20:00 +28°C° 0.1 mm 3 mps 687 mmHg 42%
    21:00 +28°C° 0.1 mm 3 mps 688 mmHg 44%
    22:00 +27°C° 0.1 mm 4 mps 688 mmHg 47%
    23:00 +26°C° 0.1 mm 3 mps 688 mmHg 49%

    19 September, Thursday

    Time Temperature Precipitation Wind Pressure Humidity
    00:00 +26°C° 0.1 mm 2 mps 688 mmHg 51%
    01:00 +26°C° 0.1 mm 1 mps 687 mmHg 52%
    02:00 +25°C° 0 mm 1 mps 687 mmHg 55%
    03:00 +25°C° 0 mm 1 mps 686 mmHg 57%
    04:00 +24°C° 0 mm 1 mps 686 mmHg 59%
    05:00 +25°C° 0 mm 1 mps 686 mmHg 57%
    06:00 +25°C° 0 mm 1 mps 686 mmHg 54%
    07:00 +25°C° 0 mm 2 mps 687 mmHg 52%
    08:00 +26°C° 0 mm 4 mps 687 mmHg 47%
    09:00 +28°C° 0 mm 6 mps 688 mmHg 41%
    10:00 +29°C° 0 mm 9 mps 689 mmHg 36%
    11:00 +31°C° 0 mm 8 mps 689 mmHg 32%
    12:00 +32°C° 0 mm 7 mps 689 mmHg 29%
    13:00 +34°C° 0 mm 5 mps 689 mmHg 25%
    14:00 +33°C° 0.1 mm 5 mps 688 mmHg 28%
    15:00 +32°C° 0.1 mm 5 mps 688 mmHg 30%
    16:00 +32°C° 0.1 mm 5 mps 687 mmHg 33%
    17:00 +30°C° 0.1 mm 5 mps 687 mmHg 35%
    18:00 +29°C° 0.1 mm 5 mps 687 mmHg 37%
    19:00 +28°C° 0.1 mm 6 mps 687 mmHg 39%
    20:00 +27°C° 0 mm 4 mps 688 mmHg 40%
    21:00 +27°C° 0 mm 2 mps 688 mmHg 41%
    22:00 +27°C° 0 mm 1 mps 688 mmHg 42%
    23:00 +26°C° 0 mm 1 mps 688 mmHg 42%

    20 September, Friday

    Time Temperature Precipitation Wind Pressure Humidity
    00:00 +26°C° 0 mm 1 mps 688 mmHg 43%
    01:00 +26°C° 0 mm 1 mps 688 mmHg 44%
    02:00 +25°C° 0 mm 1 mps 688 mmHg 44%
    03:00 +25°C° 0 mm 2 mps 687 mmHg 45%
    04:00 +25°C° 0 mm 2 mps 687 mmHg 45%
    05:00 +25°C° 0 mm 2 mps 687 mmHg 45%
    06:00 +25°C° 0 mm 2 mps 687 mmHg 44%
    07:00 +25°C° 0 mm 2 mps 687 mmHg 43%
    08:00 +27°C° 0 mm 3 mps 688 mmHg 38%
    09:00 +29°C° 0 mm 3 mps 688 mmHg 33%
    10:00 +30°C° 0 mm 4 mps 689 mmHg 28%
    11:00 +32°C° 0 mm 4 mps 689 mmHg 27%
    12:00 +33°C° 0 mm 4 mps 689 mmHg 26%
    13:00 +33°C° 0 mm 4 mps 689 mmHg 25%
    14:00 +30°C° 0.8 mm 5 mps 688 mmHg 34%
    15:00 +28°C° 0.8 mm 5 mps 687 mmHg 43%
    16:00 +25°C° 0.8 mm 5 mps 686 mmHg 52%
    17:00 +25°C° 0.8 mm 4 mps 687 mmHg 55%
    18:00 +24°C° 0.8 mm 3 mps 687 mmHg 57%
    19:00 +23°C° 0.8 mm 2 mps 687 mmHg 60%
    20:00 +24°C° 0.2 mm 2 mps 688 mmHg 58%
    21:00 +24°C° 0.2 mm 2 mps 688 mmHg 57%
    22:00 +25°C° 0.2 mm 1 mps 689 mmHg 55%
    23:00 +24°C° 0.5 mm 2 mps 689 mmHg 58%

    21 September, Saturday

    Time Temperature Precipitation Wind Pressure Humidity
    00:00 +22°C° 0.5 mm 3 mps 688 mmHg 60%
    01:00 +22°C° 0.5 mm 4 mps 688 mmHg 62%
    02:00 +22°C° 0.3 mm 3 mps 688 mmHg 61%
    03:00 +23°C° 0.3 mm 2 mps 688 mmHg 59%
    04:00 +23°C° 0.3 mm 2 mps 688 mmHg 58%
    05:00 +23°C° 0.3 mm 1 mps 688 mmHg 57%
    06:00 +23°C° 0.3 mm 1 mps 688 mmHg 57%
    07:00 +24°C° 0.3 mm 1 mps 688 mmHg 57%
    08:00 +25°C° 0.4 mm 2 mps 688 mmHg 52%
    09:00 +26°C° 0.4 mm 3 mps 689 mmHg 48%
    10:00 +27°C° 0.4 mm 4 mps 690 mmHg 43%
    11:00 +28°C° 0 mm 5 mps 690 mmHg 41%
    12:00 +29°C° 0 mm 6 mps 690 mmHg 38%
    13:00 +30°C° 0 mm 7 mps 690 mmHg 35%
    14:00 +30°C° 0 mm 6 mps 690 mmHg 36%
    15:00 +30°C° 0 mm 6 mps 689 mmHg 37%
    16:00 +30°C° 0 mm 6 mps 689 mmHg 38%
    17:00 +29°C° 0 mm 6 mps 689 mmHg 43%
    18:00 +28°C° 0 mm 6 mps 689 mmHg 48%
    19:00 +27°C° 0 mm 6 mps 689 mmHg 53%
    20:00 +26°C° 0 mm 5 mps 689 mmHg 56%
    21:00 +26°C° 0 mm 5 mps 689 mmHg 59%
    22:00 +25°C° 0 mm 4 mps 690 mmHg 62%
    23:00 +23°C° 0 mm 4 mps 690 mmHg 63%
    Show more